GFSFLT1_sfc_rhum_189.txt.gz
RH
11 14 20 25 37 45 49 46 50 54 47 42 37 40 35 37 37 38 48 42 41 37 36 40 32 32 34 36 38 34 32 31
10 13 20 27 40 47 50 50 53 48 46 43 42 41 40 38 37 47 45 44 42 42 37 40 37 38 42 44 38 40 35 35
11 11 22 33 40 47 49 48 49 47 42 40 39 39 39 38 43 47 46 46 44 40 41 39 40 43 48 47 43 36 36 40
14 13 26 37 42 48 47 46 46 47 43 37 37 38 41 43 47 48 48 46 42 42 43 43 46 41 44 47 44 44 36 40
22 21 27 42 45 46 50 48 46 46 42 38 44 39 41 42 46 44 46 46 45 44 46 47 46 43 48 45 44 45 40 39
29 26 22 34 42 49 59 56 52 52 49 42 42 42 39 40 42 53 51 49 48 45 48 50 51 47 54 53 52 49 43 40
32 29 30 31 42 54 64 62 57 58 54 52 50 51 44 43 48 52 50 48 47 50 49 52 54 54 53 52 54 54 51 48
34 34 33 35 40 60 71 66 63 62 65 64 59 57 51 49 53 49 53 49 49 54 54 56 54 55 53 52 55 55 52 51
35 38 39 38 45 52 64 66 66 66 73 71 65 60 52 51 52 49 52 57 65 67 62 61 57 53 53 53 49 51 55 55
36 37 42 42 42 48 68 68 67 69 71 80 76 71 70 68 68 64 60 66 67 69 73 68 63 57 54 54 53 54 53 55
38 40 44 44 43 44 58 70 65 71 78 78 77 77 74 72 70 69 71 70 72 68 66 63 60 57 54 52 53 51 50 47
37 40 44 45 46 54 66 68 75 80 80 79 80 76 74 70 70 71 70 72 66 63 61 62 60 59 55 54 51 48 47 46
37 40 44 49 53 60 66 73 76 78 78 80 81 78 76 77 77 75 76 75 72 71 68 67 63 58 52 48 42 43 44 43
38 42 47 52 58 62 70 72 74 76 79 82 85 85 84 85 84 83 82 83 85 86 82 72 62 51 47 46 44 43 42 41
40 43 76 54 60 64 68 72 73 75 78 81 87 89 91 93 96 96 96 88 86 82 69 64 59 44 40 40 41 44 43 42
30 41 63 58 61 62 63 72 76 75 76 84 91 95 96 97 98 97 96 94 79 67 65 58 52 44 36 41 39 40 40 40
25 34 41 58 54 61 58 69 77 85 93 97 97 96 99 99 97 96 92 76 67 65 59 55 51 37 60 62 51 34 34 33
33 34 38 48 52 55 59 71 80 89 95 96 98 99 99 98 96 95 92 75 60 52 48 50 54 56 59 58 59 33 30 31
31 30 31 34 47 50 61 69 80 90 96 96 98 96 96 95 91 81 65 55 53 49 49 51 55 53 59 55 58 34 33 33

GFSFLT1_sfc_rhum_192.txt.gz
RH
12 14 18 18 38 57 59 57 63 66 63 61 56 56 60 58 60 62 69 64 59 61 63 62 58 59 60 63 61 56 55 52
14 18 20 22 41 58 60 58 63 61 59 57 54 57 59 58 56 64 67 65 61 64 65 62 58 64 67 64 64 62 60 55
15 16 21 33 45 59 59 56 59 58 54 52 52 54 57 57 64 65 66 66 63 59 65 63 65 68 67 63 64 61 62 64
25 26 30 36 44 58 58 56 57 58 56 51 53 54 56 61 66 66 66 64 60 63 63 68 68 71 74 69 67 66 69 67
27 30 31 48 51 58 56 56 55 57 56 52 55 50 53 56 63 62 63 64 61 62 65 68 68 71 72 69 64 70 75 67
34 35 35 33 54 65 59 57 56 56 56 53 52 54 54 57 60 67 68 68 66 62 68 72 72 74 76 76 73 72 69 67
40 36 37 38 62 70 68 62 59 59 58 62 53 58 56 58 63 67 66 65 67 69 67 74 72 73 74 74 74 72 72 69
40 40 41 47 71 82 80 72 68 65 65 66 66 64 64 58 65 67 66 66 68 73 73 75 71 70 70 72 74 75 74 73
39 43 47 46 54 70 75 76 75 76 78 77 75 75 74 59 59 60 61 62 68 74 72 69 69 67 66 68 70 71 72 75
39 42 48 49 51 56 74 74 78 83 85 88 88 84 77 65 69 65 71 74 75 74 74 73 70 68 66 67 70 70 70 73
41 44 50 48 50 70 76 75 79 87 87 85 84 82 82 78 77 80 79 78 82 83 83 83 81 72 65 67 70 68 68 70
41 46 49 51 63 69 80 82 83 85 87 87 89 86 82 78 79 80 82 82 81 78 73 70 67 66 65 69 67 65 63 64
44 46 50 54 61 67 77 84 86 85 84 88 90 83 85 86 84 83 80 76 74 72 70 68 65 64 66 68 64 63 64 63
41 50 52 57 61 69 73 78 84 85 84 88 91 91 88 88 88 86 83 82 82 78 77 79 79 80 77 71 68 67 63 60
43 72 79 63 64 69 74 80 81 84 86 88 93 92 92 92 91 89 89 88 92 91 86 81 76 66 59 54 56 62 62 60
28 53 72 65 66 68 66 73 80 82 85 90 94 93 93 96 97 97 97 97 97 94 89 68 56 55 48 58 55 58 55 60
20 30 64 58 62 68 66 75 79 82 88 93 96 98 97 98 98 98 97 97 98 95 72 67 63 53 77 67 59 51 51 52
52 44 47 59 60 63 70 74 77 83 96 97 97 97 97 97 97 97 97 98 96 79 72 64 75 75 69 62 59 50 48 47
45 36 35 52 60 62 68 71 86 91 94 96 96 97 97 97 97 97 97 97 97 93 76 84 75 54 61 57 58 50 51 51

GFSFLT1_sfc_rhum_198.txt.gz
RH
41 61 70 71 76 77 79 80 83 81 76 76 76 75 77 80 77 77 79 77 74 72 72 70 70 72 73 68 65 72 75 71
19 26 60 68 73 78 80 80 82 81 73 73 71 71 76 81 80 78 78 76 73 74 70 70 73 68 72 65 66 70 77 75
20 26 28 57 67 75 78 77 80 77 66 60 60 61 81 76 81 79 76 73 74 75 73 72 74 75 77 72 70 73 77 82
44 44 48 54 54 70 74 76 77 74 67 59 73 78 82 86 84 80 76 73 73 70 72 79 80 79 79 76 71 66 76 76
49 55 70 85 92 72 71 74 76 72 70 68 68 64 69 79 69 78 77 73 73 71 73 77 80 84 79 77 73 74 70 73
56 56 56 77 95 93 84 79 78 75 79 75 75 74 80 74 74 70 71 80 77 78 80 85 87 86 82 77 72 76 75 77
58 55 53 59 82 96 96 89 86 88 83 83 77 82 87 82 74 72 72 76 80 82 83 86 83 82 80 79 77 74 74 75
66 64 67 75 87 91 95 96 94 92 87 85 84 83 81 80 74 71 76 78 83 80 75 77 78 77 78 82 80 79 76 74
78 73 78 82 86 89 93 96 97 96 90 87 84 81 76 75 68 67 66 72 83 82 81 79 74 74 76 77 78 80 81 79
71 74 75 80 87 89 94 95 96 95 97 97 97 92 83 73 68 64 70 84 82 81 79 78 78 77 77 78 80 79 78 79
68 74 78 81 87 88 91 90 95 98 98 98 96 91 82 72 70 78 84 84 82 83 83 83 86 87 88 89 92 86 82 90
79 83 84 80 87 94 95 95 96 97 98 98 98 96 93 88 85 86 86 85 84 87 85 88 90 93 93 93 94 94 92 92
81 86 86 91 87 91 92 95 96 96 95 95 98 97 95 92 92 90 88 90 88 88 86 86 89 92 95 94 95 92 92 90
74 90 86 90 84 86 90 93 95 95 93 94 95 97 97 98 96 94 92 92 93 92 91 93 93 93 93 93 89 87 85 85
63 84 89 91 90 87 91 95 95 95 93 94 97 97 97 97 97 96 96 94 94 93 93 94 96 97 96 96 96 88 81 79
46 61 77 90 87 87 89 96 96 96 96 96 98 97 96 95 96 96 95 95 96 97 98 99 99 97 79 73 72 76 76 78
32 37 65 84 81 84 88 93 96 96 97 98 97 96 96 97 97 98 98 98 98 98 98 97 97 96 88 79 72 76 65 60
35 44 46 79 80 83 94 93 93 96 96 96 97 97 98 98 97 97 98 98 98 98 98 96 96 98 93 94 78 69 66 62
72 82 79 81 82 89 91 87 93 96 96 96 97 98 97 97 97 97 98 98 98 97 96 96 97 97 95 90 76 67 71 65

GFSFLT1_sfc_rhum_201.txt.gz
RH
38 69 76 75 82 82 84 86 91 91 91 92 95 89 84 84 82 82 87 85 82 78 75 73 74 75 77 76 74 79 84 75
34 35 44 86 88 88 86 88 89 90 88 92 90 88 86 86 82 82 84 82 79 76 77 73 76 75 78 73 77 81 89 85
49 59 71 80 74 85 90 86 88 91 85 82 81 79 87 80 90 86 79 79 77 73 72 74 77 77 78 72 74 82 84 84
55 54 67 83 95 97 92 85 84 88 85 79 85 86 91 96 90 84 80 75 74 70 71 73 74 74 73 72 73 72 80 87
61 60 62 70 89 96 95 83 84 85 86 80 77 72 76 74 80 88 83 74 73 72 70 71 76 82 80 73 74 76 77 75
71 69 71 75 87 94 96 93 88 86 86 82 83 78 81 90 89 89 81 80 74 68 72 77 80 80 82 80 84 79 77 76
73 73 73 80 88 92 95 93 92 91 89 88 85 87 93 92 88 87 83 78 81 77 76 80 86 82 80 77 76 80 79 81
83 80 82 79 92 95 93 95 95 95 95 92 85 87 87 88 88 85 84 85 84 84 78 82 80 77 75 75 75 76 75 76
76 77 83 86 88 93 94 95 96 94 96 96 94 92 90 88 88 91 88 85 84 84 86 82 77 76 77 77 81 80 73 74
70 70 74 83 87 90 94 94 95 96 97 98 98 95 95 94 96 96 97 98 97 93 83 81 79 76 77 78 80 80 84 87
74 73 73 78 86 90 91 93 94 96 97 98 98 98 97 98 98 98 97 96 94 90 85 84 83 82 83 85 86 84 85 92
68 74 79 83 86 91 91 93 95 97 97 98 99 98 98 97 96 95 95 92 89 86 85 89 86 88 88 88 89 89 91 94
59 64 80 86 92 92 92 93 96 98 97 97 99 98 98 98 97 97 95 94 90 88 90 89 90 92 92 92 92 92 95 97
51 64 70 72 89 92 93 94 96 97 97 97 98 98 98 98 98 97 94 95 96 95 93 94 94 94 95 95 95 95 95 93
37 51 73 70 73 91 92 96 96 97 96 97 98 98 98 98 97 96 96 96 96 97 96 95 96 96 94 92 93 97 97 99
35 34 46 66 75 93 93 95 96 96 95 98 99 98 98 97 97 97 96 96 97 97 98 99 98 96 94 97 97 96 96 97
35 36 40 51 78 92 95 96 97 96 97 98 98 97 97 98 97 97 97 98 98 98 98 97 98 98 96 95 87 91 84 70
47 51 46 54 86 91 94 96 96 97 98 98 98 97 98 98 97 97 98 98 98 98 98 97 98 99 97 84 80 78 77 89
64 73 68 89 91 90 94 96 98 97 98 98 98 98 98 98 98 98 98 98 98 98 98 98 98 98 91 79 78 74 69 74

GFSFLT1_sfc_rhum_204.txt.gz
RH
61 76 82 90 92 94 94 96 94 89 92 96 99 99 95 94 94 93 93 90 88 87 85 83 80 78 81 80 83 91 90 85
54 66 83 94 91 90 94 95 95 90 94 96 97 98 97 97 92 90 90 88 86 83 81 78 77 70 71 74 87 87 92 83
58 60 68 85 95 97 97 92 95 94 85 85 87 87 90 93 95 92 87 87 84 79 77 73 72 72 75 74 78 91 93 80
71 69 78 88 94 96 96 96 96 93 86 83 85 84 88 96 97 92 89 87 84 77 75 70 71 68 70 69 71 74 84 83
77 78 79 90 94 96 96 95 95 90 88 90 89 84 88 90 90 94 93 92 86 79 74 70 67 68 68 67 64 69 73 76
77 77 84 87 93 95 96 96 95 91 95 91 91 90 88 90 96 95 96 94 88 82 78 74 69 68 68 69 79 78 74 71
72 72 75 79 90 93 95 95 96 95 91 93 94 92 90 94 95 96 94 92 91 86 81 78 75 74 77 75 72 76 82 76
82 78 80 81 86 91 92 93 94 96 96 93 91 92 92 92 91 92 93 92 92 92 90 91 90 87 83 79 78 77 77 78
76 72 77 81 83 88 90 91 92 96 96 97 96 93 94 92 91 94 93 92 95 93 94 92 92 92 94 94 93 83 79 81
68 65 63 64 74 82 89 91 92 94 97 98 96 97 96 95 96 96 97 96 96 97 97 98 97 97 93 91 92 88 82 84
65 67 66 67 75 84 89 89 92 95 97 96 97 97 96 96 95 96 94 94 96 98 98 98 96 95 93 91 92 88 87 91
66 70 68 76 80 83 90 91 92 95 98 96 98 98 98 99 97 96 98 98 98 97 95 94 94 94 94 94 94 94 94 94
53 58 66 64 67 77 90 91 92 95 97 95 97 97 97 98 98 98 97 97 95 94 94 93 92 93 94 93 94 93 93 92
38 55 56 49 54 68 84 92 94 96 96 97 97 98 97 99 99 97 96 96 96 94 93 94 94 94 95 97 96 97 96 95
31 37 63 54 52 54 80 92 95 98 96 97 99 98 98 99 98 98 98 96 97 97 94 94 95 95 96 96 96 97 96 95
29 33 46 47 48 51 88 94 97 98 98 98 99 98 98 98 98 98 98 97 98 97 98 98 98 97 94 96 97 97 97 97
44 49 50 57 61 61 94 97 97 98 98 96 97 98 98 99 99 99 98 98 98 98 99 98 98 97 98 98 93 94 94 86
61 68 70 71 79 77 97 95 96 98 99 98 98 98 98 98 98 98 98 99 99 99 99 98 98 99 98 97 96 90 76 74
80 80 83 86 94 95 94 96 98 98 98 98 97 98 98 98 97 98 98 98 99 99 98 99 99 98 98 98 89 78 81 78

GFSFLT1_sfc_rhum_210.txt.gz
RH
38 41 48 51 62 68 73 73 75 81 81 86 87 86 83 74 75 77 76 75 83 88 80 60 54 44 38 37 41 40 40 41
30 33 35 38 50 52 56 60 64 75 86 93 94 90 88 86 84 81 81 83 80 82 86 72 58 46 41 46 44 50 44 44
29 30 32 35 39 41 40 45 53 52 59 77 79 78 80 80 83 87 89 90 89 89 88 82 66 52 49 50 51 47 44 46
28 28 32 32 37 40 34 36 43 55 60 58 83 84 82 78 79 80 83 88 92 91 90 86 77 66 53 56 55 54 47 48
27 26 29 31 37 38 35 34 33 41 59 51 65 56 55 51 58 59 68 77 80 87 89 89 87 77 66 58 51 54 48 52
27 25 25 23 34 37 38 32 30 35 42 52 57 59 51 53 69 73 73 74 81 82 87 91 90 84 77 68 63 63 53 47
22 19 19 19 27 33 39 36 32 38 41 42 47 55 58 64 70 75 72 73 75 80 85 89 91 88 89 82 73 70 61 54
19 18 17 20 23 28 33 31 32 36 44 46 48 50 52 56 60 69 80 83 84 78 81 87 91 89 86 87 83 76 72 60
20 19 20 20 22 25 29 28 28 27 36 43 48 51 45 47 49 53 56 66 77 82 82 80 85 83 87 86 86 82 79 79
19 19 20 20 21 23 29 34 32 32 34 40 46 50 54 56 62 66 65 69 72 76 81 85 84 85 87 88 90 89 88 86
19 19 21 21 21 22 29 29 29 30 38 46 44 50 55 58 63 67 69 73 77 80 82 84 87 86 87 89 89 87 88 89
20 22 22 22 22 24 28 29 30 34 38 42 55 59 61 62 63 64 72 82 84 87 85 88 91 90 91 92 90 91 91 91
23 25 26 26 26 28 29 35 36 38 38 44 53 59 63 66 68 70 76 83 89 94 93 95 94 94 92 93 92 93 92 95
24 27 31 29 30 33 33 36 39 41 42 47 54 63 65 70 74 76 76 77 81 87 92 96 96 98 98 98 96 96 96 94
25 28 33 33 34 36 37 41 46 47 50 51 58 66 75 76 80 82 82 80 80 80 86 89 92 94 94 97 98 98 98 98
26 28 33 34 36 37 38 44 51 51 51 55 72 79 78 81 84 84 83 84 88 91 94 96 94 96 94 95 96 98 98 98
31 30 30 32 36 39 44 50 56 57 60 77 82 83 81 85 87 88 87 90 92 93 94 93 98 96 98 98 97 98 99 98
31 30 30 34 38 43 49 55 60 62 79 82 83 83 83 87 84 84 92 94 94 97 98 97 98 100 98 98 100 100 100 100
30 29 31 31 35 38 48 57 66 76 83 80 81 81 84 85 87 89 93 96 98 100 100 100 100 100 100 100 100 100 99 100

GFSFLT1_sfc_rhum_213.txt.gz
RH
30 32 40 40 52 56 61 66 75 80 83 83 81 86 84 83 84 78 86 85 79 76 69 83 82 72 50 44 44 38 36 38
27 30 33 38 45 46 48 51 56 68 77 89 88 88 83 85 82 84 88 88 86 88 78 83 88 77 66 56 48 50 42 40
26 28 31 34 35 35 35 39 43 43 50 68 67 68 70 70 76 83 88 91 93 92 91 88 85 79 74 63 53 45 44 44
26 27 29 30 33 31 28 29 33 45 47 51 69 67 71 68 74 78 77 80 85 89 92 93 91 86 75 65 59 56 48 46
23 25 27 30 31 32 27 25 24 29 37 38 50 42 41 39 42 48 57 72 80 83 86 89 92 91 85 72 59 61 56 52
24 23 22 23 30 31 31 26 26 29 32 36 36 38 36 34 38 58 62 67 81 78 84 89 94 94 94 86 75 69 65 58
23 20 18 19 26 29 31 26 23 28 33 35 38 43 42 39 40 44 46 54 67 76 75 86 90 94 95 93 92 81 73 66
20 18 16 18 20 22 24 21 21 23 28 33 36 41 44 43 39 36 40 44 52 66 81 87 89 92 92 93 92 93 86 81
20 18 19 18 19 19 24 24 25 25 27 30 33 36 33 34 36 39 44 44 47 55 63 75 75 77 89 93 96 95 93 91
20 19 19 19 19 18 24 27 25 25 28 33 37 37 38 38 44 49 50 52 50 56 68 80 81 85 85 90 93 94 95 95
19 18 19 19 18 19 25 26 25 25 30 32 34 39 40 41 42 52 57 56 60 64 67 70 74 76 81 88 93 91 93 93
20 19 20 20 20 21 25 26 26 30 33 35 40 45 48 50 50 53 57 63 71 75 78 83 84 85 87 91 92 92 94 93
21 22 21 21 21 22 23 28 30 31 32 35 41 44 48 52 55 55 61 65 69 74 79 81 84 88 91 93 94 90 93 95
21 23 24 22 23 25 25 27 30 32 34 39 45 48 51 55 59 73 70 70 70 70 71 77 78 80 86 93 96 98 98 96
21 22 25 25 26 28 28 30 32 35 39 43 47 50 58 71 76 77 74 72 74 74 77 78 79 79 83 91 92 97 97 98
20 20 26 26 27 29 29 31 36 38 42 47 50 69 72 76 76 76 75 78 79 79 79 80 84 88 89 92 93 96 97 98
21 23 23 24 26 29 29 36 40 47 49 55 66 76 77 76 76 79 77 78 78 79 83 82 92 93 97 96 97 98 100 100
24 24 24 26 28 28 32 34 39 52 61 72 77 79 76 79 74 73 77 82 84 88 92 90 98 99 98 98 100 100 100 100
24 23 23 23 25 28 34 36 51 61 70 74 75 78 74 74 76 76 79 87 93 98 99 100 100 98 98 99 100 100 100 100